This demonstration page uses our WeatherBlox Daily Observations layout. Learn more.

Left ArrowRight Arrow

39.95233, -75.16379

Hourly Observations for May 23, 2022

Temp ( °F °C ) Dew Point ( °F °C ) Humidity (%) Winds ( mph kmh ) Pressure ( in mb ) Visibility ( mi km ) Precip ( " mm )
12:54 am 00:54 Cloudy with Light Rain 72 22.2 68 20 87 87 Calm 30.08 1019 10 16 0.01 0.25
1:54 am 01:54 Cloudy 71 21.7 65 18.3 81 81 N 17 28 30.04 1017 10 16 0.00 0.00
2:54 am 02:54 Cloudy 67 19.4 56 13.3 68 68 N 15 24 30.09 1019 10 16 0.00 0.00
3:54 am 03:54 Cloudy 66 18.9 53 11.7 63 63 NNW 14 22 30.11 1020 10 16 0.00 0.00
4:54 am 04:54 Cloudy 65 18.3 49 9.4 56 56 N 14 22 30.12 1020 10 16 0.00 0.00
5:54 am 05:54 Mostly Cloudy 62 16.7 47 8.3 58 58 N 13 20 30.16 1021 10 16 0.00 0.00
6:54 am 06:54 Mostly Cloudy 62 16.7 47 8.3 58 58 N 16 26 30.18 1022 10 16 0.00 0.00
7:54 am 07:54 Mostly Cloudy 62 16.7 47 8.3 58 58 NNE 14 22 30.19 1023 10 16 0.00 0.00
8:54 am 08:54 Mostly Cloudy 64 17.8 47 8.3 54 54 N 17 28 30.21 1023 10 16 0.00 0.00
9:54 am 09:54 Partly Cloudy 67 19.4 46 7.8 47 47 N 12 19 30.22 1023 10 16 0.00 0.00
10:54 am 10:54 Partly Cloudy 69 20.6 47 8.3 45 45 N 10 17 30.22 1023 10 16 0.00 0.00
11:54 am 11:54 Partly Cloudy 71 21.7 47 8.3 42 42 N 10 17 30.21 1023 10 16 0.00 0.00
12:54 pm 12:54 Mostly Cloudy 73 22.8 47 8.3 40 40 N 10 17 30.20 1023 10 16 0.00 0.00
1:54 pm 13:54 Mostly Cloudy 74 23.3 47 8.3 38 38 VRB 3 6 30.19 1022 10 16 0.00 0.00
2:54 pm 14:54 Mostly Cloudy 76 24.4 47 8.3 36 36 VRB 7 11 30.17 1022 10 16 0.00 0.00
3:54 pm 15:54 Mostly Cloudy 78 25.6 46 7.8 32 32 NNE 6 9 30.16 1021 10 16 0.00 0.00
4:54 pm 16:54 Mostly Cloudy 75 23.9 46 7.8 36 36 NW 7 11 30.16 1021 10 16 0.00 0.00
5:54 pm 17:54 Mostly Cloudy 75 23.9 47 8.3 37 37 N 7 11 30.16 1021 10 16 0.00 0.00
6:01 pm 18:01 Mostly Cloudy 75 23.9 47 8.3 37 37 NW 7 11 30.16 1021 10 16 0.00 0.00
6:54 pm 18:54 Mostly Cloudy 75 23.9 46 7.8 36 36 NNW 9 15 30.16 1021 10 16 0.00 0.00
7:54 pm 19:54 Mostly Cloudy 73 22.8 47 8.3 40 40 NNW 9 15 30.16 1021 10 16 0.00 0.00
8:54 pm 20:54 Cloudy 73 22.8 48 8.9 41 41 NNW 9 15 30.16 1021 10 16 0.00 0.00
9:54 pm 21:54 Cloudy 68 20 54 12.2 61 61 ESE 6 9 30.20 1023 10 16 0.00 0.00
10:54 pm 22:54 Cloudy with Light Rain 67 19.4 53 11.7 61 61 S 6 9 30.21 1023 10 16 0.00 0.00
11:54 pm 23:54 Mostly Cloudy with Drizzle 66 18.9 51 10.6 59 59 VRB 6 9 30.22 1023 10 16 0.00 0.00

Powered by AerisWeather